Location: The Saddle
(36.8333°N, 80.3417°W)
Time: 06:11:14
(UTC-04:00)

Courier 1B - Pass Details

Date: 26 September 2024
Orbit: 962 x 1208 km, 28.3° (Epoch: 05 October)

Event Time Altitude Azimuth Distance (km) Brightness Sun altitude
Rises 12:08:36 0° 249° (WSW) 3,633 10.5 48.8°
Reaches altitude 10° 12:11:22 10° 242° (WSW) 2,696 10.0 49.0°
Maximum altitude 12:17:21 39° 175° (S) 1,427 10.4 49.5°
Drops below altitude 10° 12:23:34 10° 108° (ESE) 2,803 10.4 49.9°
Sets 12:26:29 0° 101° (ESE) 3,793 10.8 50.1°
